Home   Weather   Fort William   Past weeks
Flag for United Kingdom

Past Weather in Fort William, Scotland, United Kingdom — Yesterday and Last 2 Weeks

Now
45 °F

Quite cool.


Feels Like: 40 °F
Forecast: N/A
Wind: 8 mph from Southwest

Location: Tulloch Bridge

Current Time: Mar 18, 2019 at 6:02:39 pm

Latest Report: Mar 18, 2019 at 4:00 pm


Visibility: 31 mi

Pressure: 30.04 "Hg

Humidity: 77%

Dew Point: 38 °F

Location of Fort WilliamLocation

Past Weather in Fort William — Graph

°F

Fort William Temperature Yesterday

Maximum temperature yesterday: 43 °F (at 4:00 pm)
Minimum temperature yesterday: 32 °F (at 11:00 pm)
Average temperature yesterday: 37 °F

High & Low Weather Summary for the Past Weeks

 TemperatureHumidityPressure
High45 °F (Mar 4, 2:00 pm)100% (Mar 6, 12:00 am)30.06 "Hg (Mar 6, 12:00 am)
Low25 °F (Mar 8, 3:00 am)55% (Mar 17, 4:00 pm)28.67 "Hg (Mar 12, 10:00 pm)
Average37 °F86%29.37 "Hg
* Reported Mar 3 4:00 pm — Mar 18 4:00 pm, Fort William. Weather by CustomWeather, © 2019

Note: Actual official high and low records may vary slightly from our data, if they occured in-between our weather recording intervals... More about our weather records

Advertising

Fort William Weather History for the Previous 24 Hours

Scroll right to see more
 ConditionsComfort  
Time TempWeatherWind HumidityBarometerVisibility
4:00 pm
Mon, Mar 18
45 °FQuite cool.8 mph77%30.04 "Hg31 mi
3:00 pm44 °FQuite cool.9 mph80%30.03 "Hg31 mi
2:00 pm43 °FQuite cool.9 mph79%30.03 "Hg31 mi
1:00 pm44 °FQuite cool.9 mph79%30.02 "Hg25 mi
12:00 pm43 °FQuite cool.10 mph80%30.01 "Hg31 mi
11:00 am40 °FLight rain. Cloudy.7 mph89%30.01 "Hg14 mi
10:00 am38 °FRain showers. Cloudy.7 mph91%30.00 "Hg11 mi
9:00 am38 °FChilly.3 mph91%29.99 "Hg22 mi
8:00 am33 °FChilly.1 mph100%29.98 "Hg17 mi
7:00 am31 °FChilly.1 mph98%29.97 "Hg14 mi
6:00 am31 °FChilly.1 mph97%29.97 "Hg16 mi
5:00 am31 °FChilly.1 mph98%29.96 "Hg19 mi
4:00 am31 °FChilly.2 mph97%29.96 "Hg15 mi
3:00 am31 °FChilly.1 mph96%29.97 "Hg12 mi
2:00 am31 °FChilly.1 mph94%29.96 "Hg14 mi
1:00 am32 °FChilly.No wind91%29.95 "Hg16 mi
12:00 am33 °FChilly.3 mph90%29.94 "Hg19 mi
11:00 pm
Sun, Mar 17
32 °FChilly.1 mph88%29.93 "Hg19 mi
10:00 pm37 °FChilly.7 mph69%29.90 "Hg22 mi
9:00 pm38 °FChilly.9 mph64%29.88 "Hg28 mi
8:00 pm38 °FChilly.8 mph65%29.85 "Hg28 mi
7:00 pm38 °FChilly.6 mph66%29.83 "Hg31 mi
6:00 pm39 °FChilly.8 mph70%29.79 "Hg31 mi
Weather by CustomWeather, © 2019

See weather overview